Kelso, WA

10:25 AM PDT on August 24, 2016 (GMT -0700)
Kelso-Longview

Weather History for KKLS - July, 2014

Change the Weather History Date:

Saturday, July 5, 2014

  Actual Average Record
Temperature  
Mean Temperature 68 °F -  
Max Temperature 78 °F 72 °F 96 °F (2015)
Min Temperature 59 °F 51 °F 41 °F (1996)
Cooling Degree Days 4    
Growing Degree Days 18 (Base 50)    
Moisture  
Dew Point 53 °F    
Average Humidity 61    
Maximum Humidity 77    
Minimum Humidity 36    
Precipitation  
Precipitation 0.00 in - - ()
Sea Level Pressure  
Sea Level Pressure 30.12 in    
Wind  
Wind Speed 1 mph (NW)    
Max Wind Speed 6 mph    
Max Gust Speed -    
Visibility 10 miles    
Events      
Averages and records for this station are not official NWS values.
T = Trace of Precipitation, MM = Missing Value Source: NWS Daily Summary

Daily Weather History Graph

Daily Weather History Graph

Search for Another Location

Airport or City:

Trip Planner

Search our weather history database for the weather conditions in past years. The results will help you decide how hot, cold, wet, or windy it might be!

Date:

Astronomy

Jul. 05, 2014 Rise Set
Actual Time 5:26 AM PDT 9:05 PM PDT
Civil Twilight 4:48 AM PDT 9:43 PM PDT
Nautical Twilight 3:57 AM PDT 10:34 PM PDT
Astronomical Twilight 2:48 AM PDT 11:42 PM PDT
Moon 1:54 PM PDT (7/5) 12:34 AM PDT (7/5)
Length of Visible Light 16h 54m
Length of Day
15h 38m
First Quarter, 53% of the Moon is Illuminated
Jul 5
First Quarter
Jul 12
Full
Jul 18
Last Quarter
Jul 26
New
Aug 3
First Quarter

Hourly Weather History & Observations

Time (PDT) Temp. Dew Point Humidity Pressure Visibility Wind Dir Wind Speed Gust Speed Precip Events Conditions
12:15 AM 62.6 °F 51.8 °F 68% 30.08 in 10.0 mi Calm Calm - N/A   Clear
12:35 AM 60.8 °F 51.8 °F 72% 30.09 in 10.0 mi Calm Calm - N/A   Clear
12:55 AM 60.8 °F 51.8 °F 72% 30.09 in 10.0 mi Calm Calm - N/A   Clear
1:15 AM 60.8 °F 51.8 °F 72% 30.09 in 10.0 mi Calm Calm - N/A   Clear
1:35 AM 60.8 °F 51.8 °F 72% 30.09 in 10.0 mi Calm Calm - N/A   Clear
1:55 AM 60.8 °F 51.8 °F 72% 30.10 in 10.0 mi Calm Calm - N/A   Clear
2:15 AM 60.8 °F 51.8 °F 72% 30.10 in 10.0 mi Calm Calm - N/A   Clear
2:35 AM 60.8 °F 51.8 °F 72% 30.10 in 10.0 mi Calm Calm - N/A   Clear
2:55 AM 60.8 °F 51.8 °F 72% 30.10 in 10.0 mi Calm Calm - N/A   Clear
3:15 AM 59.0 °F 51.8 °F 77% 30.10 in 10.0 mi Calm Calm - N/A   Clear
3:35 AM 59.0 °F 51.8 °F 77% 30.10 in 10.0 mi Calm Calm - N/A   Clear
3:55 AM 59.0 °F 51.8 °F 77% 30.10 in 10.0 mi Calm Calm - N/A   Clear
4:15 AM 59.0 °F 51.8 °F 77% 30.11 in 10.0 mi Calm Calm - N/A   Clear
4:35 AM 59.0 °F 51.8 °F 77% 30.11 in 10.0 mi NNW 3.5 mph - N/A   Clear
4:55 AM 59.0 °F 51.8 °F 77% 30.11 in 10.0 mi Calm Calm - N/A   Scattered Clouds
5:15 AM 59.0 °F 51.8 °F 77% 30.12 in 10.0 mi Calm Calm - N/A   Mostly Cloudy
5:35 AM 59.0 °F 51.8 °F 77% 30.12 in 10.0 mi Calm Calm - N/A   Overcast
5:55 AM 59.0 °F 51.8 °F 77% 30.13 in 10.0 mi Calm Calm - N/A   Overcast
6:15 AM 59.0 °F 51.8 °F 77% 30.13 in 10.0 mi NNE 3.5 mph - N/A   Overcast
6:35 AM 59.0 °F 51.8 °F 77% 30.13 in 10.0 mi Calm Calm - N/A   Mostly Cloudy
6:55 AM 60.8 °F 51.8 °F 72% 30.14 in 10.0 mi Calm Calm - N/A   Overcast
7:15 AM 60.8 °F 51.8 °F 72% 30.14 in 10.0 mi Calm Calm - N/A   Overcast
7:35 AM 60.8 °F 51.8 °F 72% 30.14 in 10.0 mi Calm Calm - N/A   Scattered Clouds
7:55 AM 60.8 °F 51.8 °F 72% 30.14 in 10.0 mi Calm Calm - N/A   Mostly Cloudy
8:15 AM 62.6 °F 53.6 °F 72% 30.14 in 10.0 mi Calm Calm - N/A   Scattered Clouds
8:35 AM 62.6 °F 53.6 °F 72% 30.15 in 10.0 mi Calm Calm - N/A   Clear
8:55 AM 64.4 °F 53.6 °F 68% 30.15 in 10.0 mi Calm Calm - N/A   Mostly Cloudy
9:15 AM 64.4 °F 53.6 °F 68% 30.15 in 10.0 mi Calm Calm - N/A   Overcast
9:35 AM 66.2 °F 53.6 °F 64% 30.14 in 10.0 mi Calm Calm - N/A   Mostly Cloudy
9:55 AM 66.2 °F 53.6 °F 64% 30.15 in 10.0 mi Calm Calm - N/A   Clear
10:15 AM 66.2 °F 53.6 °F 64% 30.14 in 10.0 mi Calm Calm - N/A   Clear
10:35 AM 66.2 °F 55.4 °F 68% 30.14 in 10.0 mi Calm Calm - N/A   Clear
10:55 AM 69.8 °F 55.4 °F 60% 30.15 in 10.0 mi Calm Calm - N/A   Clear
11:15 AM 69.8 °F 55.4 °F 60% 30.15 in 10.0 mi SW 3.5 mph - N/A   Clear
11:35 AM 71.6 °F 55.4 °F 57% 30.15 in 10.0 mi Calm Calm - N/A   Clear
11:55 AM 71.6 °F 55.4 °F 57% 30.15 in 10.0 mi WNW 3.5 mph - N/A   Clear
12:15 PM 73.4 °F 57.2 °F 57% 30.15 in 10.0 mi WNW 3.5 mph - N/A   Clear
12:35 PM 73.4 °F 55.4 °F 53% 30.15 in 10.0 mi Calm Calm - N/A   Clear
1:15 PM 75.2 °F 55.4 °F 50% 30.14 in 10.0 mi NW 4.6 mph - N/A   Clear
1:35 PM 77.0 °F 55.4 °F 47% 30.14 in 10.0 mi West 4.6 mph - N/A   Clear
1:55 PM 77.0 °F 53.6 °F 44% 30.14 in 10.0 mi Calm Calm - N/A   Clear
2:15 PM 77.0 °F 55.4 °F 47% 30.14 in 10.0 mi NW 4.6 mph - N/A   Clear
2:35 PM 78.8 °F 55.4 °F 44% 30.14 in 10.0 mi West 3.5 mph - N/A   Clear
2:55 PM 78.8 °F 55.4 °F 44% 30.13 in 10.0 mi Calm Calm - N/A   Clear
3:15 PM 78.8 °F 53.6 °F 42% 30.13 in 10.0 mi Calm Calm - N/A   Clear
3:35 PM 78.8 °F 51.8 °F 39% 30.13 in 10.0 mi NW 5.8 mph - N/A   Clear
3:55 PM 78.8 °F 50.0 °F 36% 30.13 in 10.0 mi WNW 5.8 mph - N/A   Clear
4:15 PM 78.8 °F 51.8 °F 39% 30.13 in 10.0 mi WNW 5.8 mph - N/A   Clear
4:35 PM 77.0 °F 53.6 °F 44% 30.13 in 10.0 mi WNW 4.6 mph - N/A   Clear
4:55 PM 77.0 °F 53.6 °F 44% 30.13 in 10.0 mi West 4.6 mph - N/A   Clear
5:15 PM 75.2 °F 55.4 °F 50% 30.13 in 10.0 mi WNW 4.6 mph - N/A   Clear
5:35 PM 75.2 °F 53.6 °F 47% 30.12 in 10.0 mi WNW 4.6 mph - N/A   Clear
5:55 PM 75.2 °F 53.6 °F 47% 30.12 in 10.0 mi Calm Calm - N/A   Clear
6:15 PM 75.2 °F 55.4 °F 50% 30.12 in 10.0 mi WNW 4.6 mph - N/A   Clear
6:35 PM 75.2 °F 55.4 °F 50% 30.11 in 10.0 mi WNW 4.6 mph - N/A   Clear
6:55 PM 75.2 °F 53.6 °F 47% 30.10 in 10.0 mi WNW 4.6 mph - N/A   Clear
7:15 PM 75.2 °F 53.6 °F 47% 30.10 in 10.0 mi Calm Calm - N/A   Clear
7:35 PM 73.4 °F 53.6 °F 50% 30.10 in 10.0 mi Calm Calm - N/A   Clear
7:55 PM 73.4 °F 53.6 °F 50% 30.10 in 10.0 mi Calm Calm - N/A   Clear
8:15 PM 73.4 °F 53.6 °F 50% 30.11 in 10.0 mi Calm Calm - N/A   Clear
8:35 PM 71.6 °F 53.6 °F 53% 30.10 in 10.0 mi Calm Calm - N/A   Clear
8:55 PM 71.6 °F 53.6 °F 53% 30.10 in 10.0 mi NW 3.5 mph - N/A   Clear
9:15 PM 71.6 °F 53.6 °F 53% 30.11 in 10.0 mi North 3.5 mph - N/A   Clear
9:35 PM 69.8 °F 53.6 °F 56% 30.11 in 10.0 mi North 3.5 mph - N/A   Clear
9:55 PM 69.8 °F 55.4 °F 60% 30.12 in 10.0 mi Calm Calm - N/A   Clear
10:15 PM 69.8 °F 55.4 °F 60% 30.12 in 10.0 mi NNW 3.5 mph - N/A   Clear
10:35 PM 68.0 °F 53.6 °F 60% 30.13 in 10.0 mi NNE 3.5 mph - N/A   Clear
10:55 PM 66.2 °F 53.6 °F 64% 30.13 in 10.0 mi North 3.5 mph - N/A   Clear
11:15 PM 66.2 °F 53.6 °F 64% 30.13 in 10.0 mi Calm Calm - N/A   Clear
11:35 PM 64.4 °F 53.6 °F 68% 30.14 in 10.0 mi Calm Calm - N/A   Clear
11:55 PM 64.4 °F 53.6 °F 68% 30.14 in 10.0 mi North 3.5 mph - N/A   Clear